Location: Soapstone Prairie Natural Area
(40.9437°N, 105.0829°W)
Time: 11:28:27
(UTC-06:00)

ISS - Visible Passes

Search period start: 20 April 2014 00:00
Search period end: 30 April 2014 00:00
Orbit: 413 x 419 km, 51.6° (Epoch: 20 April)

Date Brightness Start Highest point End Pass type
(mag) Time Alt. Az. Time Alt. Az. Time Alt. Az.
20 Apr -2.5 21:01:21 10° NW 21:04:35 43° NNE 21:06:00 27° E visible
20 Apr -0.2 22:38:27 10° W 22:38:54 12° W 22:38:54 12° W visible
21 Apr -1.9 20:12:55 10° NW 20:15:56 29° NNE 20:18:55 10° E visible
21 Apr -2.2 21:49:33 10° WNW 21:52:20 37° WSW 21:52:20 37° WSW visible
22 Apr -3.2 21:00:49 10° WNW 21:04:10 72° SW 21:05:45 28° SE visible
23 Apr -3.1 20:12:08 10° NW 20:15:28 66° NE 20:18:47 10° ESE visible
23 Apr -0.8 21:49:57 10° W 21:51:49 14° SW 21:52:04 14° SW visible
24 Apr -1.4 21:00:26 10° WNW 21:03:14 25° SW 21:05:28 13° S visible
